Weather History for K1M4 - March, 2014

Change the Weather History Date:

Friday, March 7, 2014

  Actual Average (KMSL) Record (KMSL)
Temperature  
Mean Temperature 46 °F 51 °F  
Max Temperature 63 °F 62 °F 83 °F (1934)
Min Temperature 28 °F 40 °F 7 °F (1899)
Degree Days  
Heating Degree Days 20 14  
Month to date heating degree days 107  
Since 1 July heating degree days 2642  
Cooling Degree Days 0 0  
Month to date cooling degree days 0  
Year to date cooling degree days 1  
Moisture  
Dew Point 33 °F    
Average Humidity 86    
Maximum Humidity 100    
Minimum Humidity 35    
Precipitation  
Precipitation 0.00 in 0.15 in 3.64 in (1961)
Month to date precipitation 1.09  
Year to date precipitation 10.36  
Snow  
Snow 0.00 in - - ()
Month to date snowfall  
Since 1 July snowfall  
Snow Depth -    
Sea Level Pressure  
Sea Level Pressure 30.06 in    
Wind  
Wind Speed 2 mph (WNW)    
Max Wind Speed 9 mph    
Max Gust Speed -    
Visibility 4 miles    
Events Fog    
T = Trace of Precipitation, MM = Missing Value Source: NWS Daily Summary

Daily Weather History Graph

Daily Weather History Graph

Search for Another Location

Airport or City:

Trip Planner

Search our weather history database for the weather conditions in past years. The results will help you decide how hot, cold, wet, or windy it might be!

Date:

Astronomy

Mar. 07, 2014 Rise Set
Actual Time 6:11 AM CST 5:51 PM CST
Civil Twilight 5:46 AM CST 6:16 PM CST
Nautical Twilight 5:17 AM CST 6:45 PM CST
Astronomical Twilight 4:48 AM CST 7:14 PM CST
Moon 10:20 AM CST (3/7) No Moon Set
Length of Visible Light 12h 30m
Length of Day
11h 40m
Waxing Crescent, 42% of the Moon is Illuminated
Mar 7
Waxing Crescent
Mar 8
First Quarter
Mar 16
Full
Mar 23
Last Quarter
Mar 30
New

Hourly Weather History & Observations

Time (CST) Temp. Windchill Dew Point Humidity Pressure Visibility Wind Dir Wind Speed Gust Speed Precip Events Conditions
12:56 AM 34.0 °F 31.0 °F 34.0 °F 100% 30.05 in 8.0 mi NNW 3.5 mph - N/A   Clear
1:21 AM 32.0 °F - 32.0 °F 100% 30.01 in 2.0 mi Calm Calm - N/A   Clear
1:30 AM 32.0 °F - 32.0 °F 100% 30.01 in 1.5 mi Calm Calm - N/A   Clear
1:43 AM 32.0 °F - 32.0 °F 100% 30.02 in 2.5 mi Calm Calm - N/A   Clear
1:56 AM 32.0 °F - 32.0 °F 100% 30.05 in 1.5 mi Calm Calm - N/A   Clear
2:14 AM 32.0 °F - 32.0 °F 100% 30.01 in 1.0 mi Calm Calm - N/A   Clear
2:18 AM 32.0 °F - 32.0 °F 100% 30.01 in 0.5 mi Calm Calm - N/A Fog Fog
2:39 AM 30.2 °F - 30.2 °F 100% 30.01 in 0.2 mi Calm Calm - N/A Fog Light Freezing Fog
2:56 AM 31.1 °F - 31.1 °F 100% 30.04 in 0.5 mi Calm Calm - N/A Fog Light Freezing Fog
3:21 AM 30.2 °F 26.7 °F 30.2 °F 100% 30.01 in 0.8 mi West 3.5 mph - N/A   Clear
3:33 AM 32.0 °F - 32.0 °F 100% 30.01 in 1.2 mi Calm Calm - N/A   Clear
3:35 AM 30.2 °F - 30.2 °F 100% 30.02 in 2.0 mi Calm Calm - N/A   Clear
3:46 AM 32.0 °F 27.5 °F 32.0 °F 100% 30.02 in 1.5 mi NW 4.6 mph - N/A   Mostly Cloudy
3:49 AM 33.8 °F 29.6 °F 33.8 °F 100% 30.02 in 1.0 mi WNW 4.6 mph - N/A   Mostly Cloudy
3:56 AM 32.9 °F - 32.9 °F 100% 30.06 in 0.2 mi Calm Calm - N/A Fog Fog
4:13 AM 32.0 °F 28.7 °F 32.0 °F 100% 30.03 in 0.2 mi NW 3.5 mph - N/A Fog Fog
4:56 AM 31.1 °F - 31.1 °F 100% 30.08 in 0.2 mi Calm Calm - N/A Fog Light Freezing Fog
5:39 AM 30.2 °F - 30.2 °F 100% 30.04 in 0.2 mi Calm Calm - N/A Fog Light Freezing Fog
5:56 AM 30.0 °F - 30.0 °F 100% 30.08 in 0.2 mi Calm Calm - N/A Fog Light Freezing Fog
6:04 AM 28.4 °F - 28.4 °F 100% 30.05 in 0.2 mi Calm Calm - N/A Fog Light Freezing Fog
6:18 AM 28.4 °F - 28.4 °F 100% 30.05 in 0.2 mi Calm Calm - N/A Fog Light Freezing Fog
6:56 AM 29.1 °F - 29.1 °F 100% 30.10 in 0.2 mi Calm Calm - N/A Fog Light Freezing Fog
7:05 AM 28.4 °F - 28.4 °F 100% 30.07 in 0.2 mi Calm Calm - N/A Fog Light Freezing Fog
7:11 AM 28.4 °F - 28.4 °F 100% 30.07 in 0.8 mi Calm Calm - N/A   Clear
7:15 AM 28.4 °F - 28.4 °F 100% 30.07 in 1.2 mi Calm Calm - N/A   Clear
7:22 AM 28.4 °F - 28.4 °F 100% 30.07 in 1.8 mi Calm Calm - N/A   Clear
7:35 AM 30.2 °F - 30.2 °F 100% 30.07 in 2.5 mi Calm Calm - N/A   Clear
7:43 AM 30.2 °F - 30.2 °F 100% 30.07 in 3.0 mi Calm Calm - N/A   Clear
7:56 AM 32.9 °F - 32.9 °F 100% 30.11 in 1.2 mi Calm Calm - N/A   Clear
8:00 AM 33.8 °F - 33.8 °F 100% 30.07 in 0.8 mi Calm Calm - N/A   Clear
8:11 AM 37.4 °F 34.9 °F 37.4 °F 100% 30.08 in 1.5 mi North 3.5 mph - N/A   Clear
8:15 AM 37.4 °F 34.9 °F 37.4 °F 100% 30.08 in 3.0 mi North 3.5 mph - N/A   Clear
8:56 AM 43.0 °F 40.3 °F 43.0 °F 100% 30.11 in 10.0 mi NNE 4.6 mph - N/A   Clear
9:56 AM 52.9 °F - 38.8 °F 59% 30.10 in 10.0 mi NNE 4.6 mph - N/A   Clear
10:56 AM 55.9 °F - 36.0 °F 47% 30.10 in 10.0 mi Variable 3.5 mph - N/A   Clear
11:56 AM 57.9 °F - 34.0 °F 41% 30.08 in 10.0 mi Variable 3.5 mph - N/A   Clear
12:56 PM 59.9 °F - 34.9 °F 39% 30.05 in 10.0 mi SW 6.9 mph - N/A   Clear
1:56 PM 61.9 °F - 34.9 °F 36% 30.04 in 10.0 mi North 4.6 mph - N/A   Clear
2:56 PM 63.0 °F - 34.9 °F 35% 30.04 in 10.0 mi Variable 4.6 mph - N/A   Clear
3:56 PM 63.0 °F - 36.9 °F 38% 30.04 in 10.0 mi West 9.2 mph - N/A   Clear
4:56 PM 59.9 °F - 36.9 °F 42% 30.04 in 10.0 mi WSW 6.9 mph - N/A   Clear
5:56 PM 54.9 °F - 37.9 °F 53% 30.05 in 10.0 mi WSW 4.6 mph - N/A   Clear
6:56 PM 52.0 °F - 38.8 °F 61% 30.06 in 10.0 mi WSW 4.6 mph - N/A   Clear
7:56 PM 47.8 °F - 38.8 °F 71% 30.09 in 10.0 mi Calm Calm - N/A   Clear
8:56 PM 47.8 °F - 38.8 °F 71% 30.10 in 10.0 mi WSW 3.5 mph - N/A   Clear
9:56 PM 45.9 °F - 37.9 °F 74% 30.10 in 10.0 mi Calm Calm - N/A   Clear
10:56 PM 41.9 °F 40.0 °F 37.9 °F 86% 30.11 in 10.0 mi WSW 3.5 mph - N/A   Clear
11:56 PM 38.8 °F - 36.9 °F 93% 30.11 in 10.0 mi Calm Calm - N/A   Clear